Vertical_Velocity
-2 -2 -2 -1 -0 -2 -2 -0 -1 -0 2 1 1 1 -0 1 -3 2 -0 4 -1 -1
-3 -3 -3 -3 -1 -1 -1 -3 -3 -3 -2 -3 -3 -2 -1 3 3 3 -2 -1 -1 -0
-1 -2 -4 0 -3 -1 -1 -1 -5 -4 -3 -2 -2 -3 -1 -0 1 -2 -2 -1 -1 2
2 -1 -2 -2 -3 -2 -0 -1 -4 -4 -2 -4 -4 0 -3 -2 -2 -2 1 1 3 4
4 4 3 -3 -0 1 -2 -2 -2 -2 -1 -1 -1 -1 -4 1 2 -3 -2 1 2 -2
-1 5 3 6 -2 -2 -0 2 -2 -3 -5 -4 3 3 -3 1 -2 1 -1 1 2 -2
3 1 -5 -3 2 0 -1 -0 3 4 -2 -3 -2 2 1 3 2 2 0 2 0 -1
1 -3 -1 -1 -2 -3 0 -2 -3 -2 6 4 -1 -2 -1 2 2 2 2 2 -2 2
1 3 4 0 -1 -3 -1 1 -3 0 -2 0 3 -1 -3 2 3 1 2 5 3 0
-3 -1 1 -3 -6 -1 -1 -3 -3 -1 -2 -1 -2 3 1 1 3 2 3 4 3 0
-2 -1 -2 -2 -0 -2 -3 -1 -1 -4 -1 -3 -4 -1 2 -2 3 0 2 3 -0 -1
-0 1 -2 -1 0 2 -4 -6 -0 -2 -1 -1 0 -5 -0 -2 -0 1 0 2 1 2
-3 -1 5 1 3 -1 2 1 -0 1 4 -2 3 1 1 -1 -1 -0 3 -1 6 -1
-4 -1 0 0 1 1 -1 1 3 -0 7 1 1 2 0 1 0 -2 3 -1 2 -0
Height
5895 5897 5899 5901 5904 5906 5909 5912 5916 5920 5923 5926 5928 5930 5931 5932 5933 5934 5934 5935 5935 5935
5893 5894 5896 5898 5900 5903 5905 5909 5913 5915 5918 5921 5923 5926 5928 5929 5930 5931 5931 5931 5932 5933
5891 5892 5894 5896 5898 5899 5901 5906 5908 5912 5914 5917 5919 5922 5924 5925 5927 5928 5928 5929 5929 5929
5888 5889 5891 5893 5895 5898 5899 5902 5905 5907 5911 5913 5916 5918 5919 5921 5923 5924 5925 5926 5926 5926
5884 5887 5889 5891 5893 5895 5898 5900 5901 5903 5905 5909 5912 5913 5914 5917 5919 5920 5920 5921 5922 5922
5882 5882 5885 5888 5890 5892 5894 5897 5899 5901 5902 5903 5905 5908 5910 5912 5914 5915 5916 5917 5917 5917
5877 5874 5876 5879 5884 5888 5890 5893 5896 5898 5899 5901 5901 5902 5905 5906 5908 5910 5911 5912 5912 5912
5864 5867 5869 5873 5876 5879 5884 5887 5890 5892 5895 5896 5897 5898 5898 5900 5901 5902 5904 5905 5906 5906
5857 5859 5864 5866 5868 5871 5876 5879 5880 5884 5886 5888 5891 5892 5893 5893 5894 5896 5896 5897 5898 5898
5848 5851 5853 5856 5859 5862 5867 5868 5872 5874 5878 5880 5882 5884 5886 5886 5887 5889 5890 5890 5890 5889
5839 5843 5844 5846 5850 5852 5855 5858 5862 5864 5867 5871 5874 5877 5878 5877 5876 5879 5881 5882 5881 5881
5830 5832 5835 5838 5840 5842 5843 5846 5849 5853 5856 5860 5864 5866 5869 5869 5868 5869 5871 5873 5873 5873
5819 5822 5826 5828 5829 5830 5832 5834 5837 5841 5845 5848 5853 5855 5858 5859 5860 5860 5861 5862 5863 5863
5808 5811 5813 5816 5818 5819 5821 5823 5824 5828 5830 5835 5840 5844 5846 5849 5849 5851 5851 5852 5853 5853